Vorticity
17 14 9 13 11 16 5 10 4 -5 30 29 18 12 13 3 3 8 12 2 2 10 11 0 5 5 7 6 5 6 5 8 21 13 8 5 5 4 5 7 8 8 11 12
-2 10 8 7 6 -2 -2 -1 2 13 -16 17 20 12 14 3 -4 1 7 6 7 11 9 7 7 3 4 4 6 6 4 10 21 12 7 6 5 4 7 8 9 10 11 8
3 7 10 5 -1 12 23 28 27 6 18 19 9 7 4 4 4 9 13 11 5 10 8 4 2 2 2 2 6 3 4 17 18 10 6 6 3 5 8 11 8 11 12 10
13 -0 4 6 5 28 3 -10 8 7 13 -3 28 -6 -5 2 9 8 3 19 11 19 7 2 6 5 3 2 4 6 4 19 15 8 6 2 1 5 9 12 13 12 9 7
1 5 7 25 14 13 4 4 10 16 2 0 13 2 -16 19 39 29 40 22 17 20 7 1 2 3 2 2 5 6 5 19 11 7 4 1 4 8 11 13 14 9 8 9
11 5 -4 2 14 8 12 9 2 2 4 39 -6 28 17 8 12 10 11 21 28 21 7 7 9 4 3 5 5 5 9 17 10 5 2 1 4 10 17 12 13 10 8 9
12 7 3 3 11 4 3 10 27 27 28 -10 11 24 -5 21 -10 8 23 35 28 10 5 5 7 5 4 3 7 6 14 14 7 4 1 3 9 13 14 11 10 9 8 8
6 40 -1 21 18 1 2 20 -5 10 5 -40 14 13 -16 13 17 15 24 11 11 9 10 8 9 3 6 6 7 11 14 11 6 2 1 7 12 15 12 11 10 7 9 9
2 20 11 40 36 19 22 17 21 12 26 29 21 4 -8 8 14 15 7 12 7 11 10 10 3 8 9 11 12 12 15 7 4 2 5 9 13 16 11 10 8 8 9 9
2 10 19 8 5 4 4 2 12 3 9 11 3 -3 14 6 7 13 14 9 17 15 7 4 5 14 15 11 11 13 11 6 -1 4 8 12 15 12 11 8 8 9 9 10
12 6 -2 11 11 4 7 16 18 11 5 8 6 -5 7 6 10 16 13 15 11 12 10 3 16 14 8 10 11 12 7 -3 12 4 10 13 14 11 9 8 8 9 9 11
14 9 14 2 2 20 8 -6 1 22 -1 16 20 11 -4 26 19 13 12 8 11 14 4 17 4 6 7 8 12 -1 12 15 3 8 13 13 14 9 9 8 9 10 9 12
8 -1 13 21 26 -3 -8 1 8 26 12 8 29 -11 20 12 10 18 5 13 12 5 18 7 4 9 9 9 1 19 12 1 7 12 13 15 10 9 8 8 9 9 9 16
3 12 14 10 0 6 8 22 15 10 17 3 -8 14 19 9 10 11 12 7 8 16 7 7 8 3 6 9 25 6 4 6 9 12 14 12 9 9 8 8 9 9 11 15
28 5 5 1 9 18 4 8 10 23 2 20 2 9 19 18 19 20 9 7 15 4 3 -3 11 9 10 18 5 8 8 6 11 14 13 11 9 8 8 9 9 9 11 15
4 7 14 15 10 12 5 -11 7 2 3 8 20 23 15 19 8 3 6 12 3 -4 4 8 9 7 8 12 8 8 6 11 13 13 13 10 8 8 8 9 9 9 10 15
8 1 9 1 7 18 -16 8 13 4 4 4 8 9 21 6 7 10 2 2 9 8 9 8 7 8 11 6 9 7 11 11 14 13 11 8 8 8 8 9 9 8 9 16
-3 14 16 13 -1 12 11 7 3 6 17 9 13 13 10 9 13 -2 8 10 8 1 0 14 17 8 6 10 8 10 10 13 15 12 9 8 9 8 8 9 8 8 8 16
32 6 8 16 12 9 -9 -7 3 9 6 3 8 6 15 22 4 18 11 5 1 -7 19 21 8 7 9 9 9 10 11 14 13 11 9 9 8 8 8 9 7 7 9 15
3 -3 10 6 11 8 5 -2 -0 12 13 -7 9 9 9 8 7 2 8 4 15 23 17 5 7 12 5 9 9 11 13 14 12 9 8 8 8 8 8 9 7 7 8 13
8 13 3 0 10 12 -0 3 -3 14 -7 15 8 -1 16 13 3 9 3 12 32 9 19 17 14 7 8 9 10 13 14 16 11 8 9 8 8 8 9 8 7 7 7 10
26 9 19 17 5 13 6 -11 4 8 11 3 5 15 16 12 1 7 9 5 9 8 27 11 10 10 8 10 13 14 16 13 9 8 9 9 8 8 9 8 7 8 7 8
4 10 7 5 12 -1 9 3 15 5 6 8 18 16 20 21 26 25 31 16 11 26 12 15 6 8 9 11 13 15 15 9 9 8 9 9 10 8 8 8 8 8 8 8
9 1 11 3 3 -3 6 8 3 3 13 26 21 16 11 10 9 14 10 6 7 21 17 8 9 6 10 13 13 17 13 8 9 8 7 8 10 8 8 8 9 8 8 8
1 3 6 2 -2 7 -1 12 -8 14 16 17 9 7 11 10 7 11 8 -4 35 14 8 5 8 8 12 13 15 18 10 9 9 7 7 8 8 9 9 8 9 8 9 9
-4 11 7 9 8 11 1 3 12 15 19 13 3 13 13 9 10 12 3 23 17 13 14 11 6 11 12 13 16 15 8 9 7 7 8 8 8 7 9 9 8 9 9 9
Height
3158 3158 3157 3159 3161 3162 3163 3162 3160 3159 3158 3155 3153 3152 3152 3153 3153 3149 3148 3147 3144 3141 3142 3141 3140 3140 3141 3140 3139 3137 3133 3128 3125 3122 3119 3115 3110 3104 3097 3089 3081 3074 3069 3064
3155 3152 3155 3158 3159 3159 3159 3158 3155 3155 3154 3152 3150 3149 3150 3148 3147 3144 3144 3142 3139 3137 3136 3138 3137 3138 3138 3136 3134 3133 3129 3125 3121 3118 3115 3111 3106 3099 3092 3084 3076 3069 3064 3058
3151 3151 3154 3155 3155 3156 3155 3154 3151 3152 3150 3147 3147 3146 3148 3144 3141 3138 3138 3137 3133 3132 3133 3134 3135 3135 3133 3132 3131 3130 3127 3123 3118 3115 3111 3106 3100 3093 3087 3080 3074 3068 3061 3055
3149 3149 3151 3152 3152 3152 3150 3151 3150 3148 3147 3146 3146 3143 3142 3142 3138 3134 3132 3129 3127 3128 3128 3130 3131 3131 3130 3130 3129 3127 3124 3119 3114 3111 3107 3103 3097 3091 3084 3077 3069 3062 3058 3051
3147 3146 3148 3147 3148 3148 3147 3147 3147 3146 3145 3143 3143 3143 3135 3137 3133 3130 3125 3124 3122 3125 3127 3129 3129 3128 3128 3127 3127 3125 3121 3116 3111 3107 3103 3098 3092 3085 3078 3070 3064 3058 3052 3048
3142 3143 3144 3145 3145 3145 3144 3144 3144 3144 3143 3140 3139 3141 3134 3132 3130 3127 3125 3121 3121 3123 3127 3127 3126 3126 3126 3125 3124 3122 3117 3111 3108 3104 3100 3094 3088 3081 3074 3067 3061 3055 3050 3044
3140 3140 3141 3142 3142 3143 3142 3142 3142 3143 3142 3138 3138 3138 3133 3130 3128 3126 3123 3122 3122 3125 3126 3124 3124 3125 3125 3124 3122 3118 3113 3108 3104 3101 3096 3090 3082 3076 3069 3063 3057 3052 3047 3041
3139 3138 3139 3138 3137 3139 3140 3141 3142 3144 3143 3135 3136 3133 3130 3129 3125 3123 3122 3122 3122 3122 3122 3122 3125 3125 3124 3122 3118 3114 3109 3106 3102 3097 3092 3085 3078 3072 3065 3060 3054 3047 3043 3038
3137 3137 3135 3133 3133 3137 3139 3139 3140 3138 3136 3133 3132 3131 3128 3125 3124 3122 3121 3120 3120 3119 3121 3123 3125 3124 3122 3119 3115 3111 3108 3103 3099 3093 3088 3081 3075 3068 3063 3057 3050 3046 3041 3034
3135 3135 3135 3135 3136 3137 3137 3138 3137 3135 3135 3134 3129 3128 3126 3124 3122 3120 3119 3119 3118 3120 3121 3123 3123 3122 3119 3115 3111 3108 3104 3099 3095 3091 3084 3078 3072 3065 3061 3054 3048 3044 3038 3031
3134 3134 3136 3136 3136 3135 3136 3135 3135 3134 3133 3131 3131 3127 3125 3122 3120 3119 3119 3118 3118 3119 3121 3121 3119 3118 3115 3111 3108 3104 3100 3097 3092 3087 3080 3075 3069 3063 3058 3052 3048 3042 3035 3029
3132 3132 3133 3135 3135 3134 3134 3135 3134 3134 3134 3130 3128 3125 3124 3121 3119 3118 3118 3118 3118 3119 3119 3119 3118 3115 3111 3108 3105 3101 3096 3092 3089 3083 3077 3071 3065 3061 3056 3051 3046 3040 3033 3027
3132 3132 3131 3132 3134 3133 3133 3133 3132 3131 3130 3129 3129 3126 3120 3119 3119 3118 3117 3118 3119 3119 3118 3116 3113 3113 3110 3106 3101 3096 3093 3090 3086 3080 3074 3069 3062 3058 3054 3050 3044 3037 3031 3025
3132 3133 3133 3135 3136 3136 3134 3131 3129 3128 3127 3127 3127 3125 3121 3119 3117 3117 3118 3119 3119 3117 3115 3115 3113 3109 3106 3102 3098 3095 3091 3087 3082 3077 3072 3067 3061 3057 3052 3047 3042 3036 3029 3022
3130 3132 3133 3135 3134 3134 3133 3131 3130 3128 3128 3127 3126 3124 3122 3120 3119 3119 3119 3118 3116 3116 3114 3112 3110 3106 3103 3100 3096 3092 3089 3084 3079 3074 3070 3065 3061 3056 3052 3046 3040 3034 3027 3021
3132 3133 3133 3133 3134 3133 3132 3132 3130 3129 3128 3126 3125 3124 3122 3121 3121 3121 3120 3118 3116 3114 3112 3109 3106 3103 3099 3096 3092 3089 3086 3082 3077 3072 3068 3064 3060 3056 3051 3045 3040 3033 3026 3020
3132 3133 3133 3133 3133 3131 3131 3132 3131 3130 3130 3129 3127 3125 3123 3123 3122 3121 3119 3117 3115 3112 3110 3106 3102 3098 3096 3093 3090 3088 3084 3079 3075 3071 3068 3064 3060 3056 3050 3046 3040 3033 3026 3019
3130 3132 3133 3133 3133 3135 3136 3134 3132 3130 3129 3128 3127 3126 3124 3123 3122 3120 3117 3115 3112 3110 3106 3101 3096 3094 3093 3092 3090 3086 3082 3078 3074 3071 3068 3064 3060 3055 3051 3046 3040 3033 3026 3019
3129 3130 3132 3132 3132 3134 3134 3133 3132 3130 3129 3128 3126 3126 3124 3122 3120 3118 3116 3112 3109 3105 3101 3098 3094 3093 3091 3089 3087 3084 3080 3077 3073 3070 3067 3064 3060 3056 3052 3047 3041 3034 3028 3020
3127 3129 3131 3131 3132 3132 3132 3132 3131 3129 3129 3127 3126 3124 3123 3121 3118 3117 3113 3108 3103 3100 3097 3093 3092 3090 3089 3088 3085 3082 3079 3076 3072 3070 3067 3064 3060 3057 3052 3047 3041 3035 3029 3022
3126 3128 3129 3129 3130 3130 3130 3130 3130 3131 3133 3125 3124 3123 3121 3119 3115 3112 3109 3104 3098 3097 3095 3091 3090 3090 3089 3086 3083 3080 3077 3075 3073 3070 3067 3063 3060 3057 3053 3048 3043 3037 3031 3023
3125 3126 3127 3127 3128 3129 3129 3129 3129 3129 3126 3124 3122 3120 3117 3114 3110 3106 3104 3100 3099 3096 3093 3089 3088 3088 3087 3085 3081 3078 3075 3074 3072 3070 3067 3064 3062 3058 3054 3049 3044 3039 3033 3027
3124 3124 3125 3127 3126 3126 3126 3126 3125 3123 3122 3120 3117 3114 3112 3110 3107 3104 3101 3099 3097 3094 3090 3088 3088 3086 3085 3082 3079 3077 3075 3073 3072 3070 3068 3065 3063 3059 3055 3051 3047 3041 3036 3031
3121 3122 3123 3124 3123 3123 3123 3123 3122 3121 3119 3116 3113 3111 3109 3106 3103 3101 3100 3097 3094 3091 3088 3088 3087 3086 3083 3080 3078 3076 3075 3074 3072 3071 3069 3066 3064 3060 3057 3052 3048 3043 3038 3033
3121 3121 3121 3120 3121 3121 3122 3121 3120 3117 3115 3111 3109 3107 3105 3102 3100 3098 3096 3094 3091 3089 3087 3086 3086 3084 3081 3079 3077 3075 3074 3074 3072 3072 3070 3068 3065 3062 3059 3055 3050 3045 3040 3035
3118 3117 3118 3119 3119 3119 3119 3118 3116 3114 3111 3109 3107 3105 3102 3099 3097 3095 3094 3092 3090 3088 3086 3086 3084 3082 3080 3078 3076 3075 3075 3074 3073 3072 3071 3069 3066 3063 3060 3057 3051 3046 3041 3037